Weather History for KAQW - April, 2014

Change the Weather History Date:

Friday, April 4, 2014

  Actual Average Record
Temperature  
Mean Temperature 40 °F -  
Max Temperature 48 °F 48 °F 57 °F (1997)
Min Temperature 33 °F 28 °F 21 °F (2001)
Degree Days  
Heating Degree Days 24    
Moisture  
Dew Point 26 °F    
Average Humidity 57    
Maximum Humidity 82    
Minimum Humidity 39    
Precipitation  
Precipitation 0.15 in - - ()
Sea Level Pressure  
Sea Level Pressure 29.98 in    
Wind  
Wind Speed 9 mph (East)    
Max Wind Speed 23 mph    
Max Gust Speed 38 mph    
Visibility 9 miles    
Events Rain    
Averages and records for this station are not official NWS values.
T = Trace of Precipitation, MM = Missing Value Source: NWS Daily Summary

Daily Weather History Graph

Daily Weather History Graph

Search for Another Location

Airport or City:

Trip Planner

Search our weather history database for the weather conditions in past years. The results will help you decide how hot, cold, wet, or windy it might be!

Date:

Astronomy

Apr. 04, 2014 Rise Set
Actual Time 6:29 AM EDT 7:22 PM EDT
Civil Twilight 6:01 AM EDT 7:50 PM EDT
Nautical Twilight 5:27 AM EDT 8:25 PM EDT
Astronomical Twilight 4:51 AM EDT 9:00 PM EDT
Moon 9:39 AM EDT (4/4) No Moon Set
Length of Visible Light 13h 49m
Length of Day
12h 52m
Waxing Crescent, 25% of the Moon is Illuminated
Apr 4
Waxing Crescent
Apr 7
First Quarter
Apr 15
Full
Apr 22
Last Quarter
Apr 29
New

Hourly Weather History & Observations

Time (EDT) Temp. Windchill Dew Point Humidity Pressure Visibility Wind Dir Wind Speed Gust Speed Precip Events Conditions
12:52 AM 33.1 °F - 28.0 °F 82% 30.12 in 10.0 mi Calm Calm - N/A   Clear
1:52 AM 39.0 °F 34.0 °F 24.1 °F 55% 30.11 in 10.0 mi East 6.9 mph - N/A   Mostly Cloudy
3:52 AM 39.0 °F 32.3 °F 21.0 °F 49% 30.08 in 10.0 mi East 10.4 mph 18.4 mph N/A   Overcast
4:52 AM 39.0 °F 32.3 °F 21.0 °F 49% 30.09 in 10.0 mi East 10.4 mph - N/A   Overcast
5:52 AM 37.9 °F 32.1 °F 21.0 °F 51% 30.09 in 10.0 mi East 8.1 mph - N/A   Overcast
6:52 AM 37.9 °F 32.7 °F 21.0 °F 51% 30.10 in 10.0 mi East 6.9 mph - N/A   Mostly Cloudy
7:52 AM 39.0 °F 33.4 °F 21.0 °F 49% 30.10 in 10.0 mi ENE 8.1 mph - N/A   Clear
8:52 AM 41.0 °F 34.7 °F 21.9 °F 47% 30.10 in 10.0 mi East 10.4 mph 19.6 mph N/A   Partly Cloudy
9:52 AM 43.0 °F 37.7 °F 23.0 °F 45% 30.07 in 10.0 mi East 9.2 mph - N/A   Mostly Cloudy
10:52 AM 45.0 °F 39.7 °F 23.0 °F 42% 30.06 in 10.0 mi East 10.4 mph 17.3 mph N/A   Overcast
11:52 AM 46.9 °F - 24.1 °F 41% 30.02 in 10.0 mi East 8.1 mph 19.6 mph N/A   Mostly Cloudy
12:52 PM 48.0 °F - 24.1 °F 39% 30.02 in 10.0 mi ESE 13.8 mph 20.7 mph N/A   Overcast
1:52 PM 46.9 °F - 25.0 °F 42% 29.99 in 10.0 mi East 12.7 mph 20.7 mph N/A   Overcast
2:52 PM 46.9 °F - 26.1 °F 44% 29.95 in 10.0 mi ESE 12.7 mph 19.6 mph N/A   Overcast
3:52 PM 46.9 °F - 26.1 °F 44% 29.91 in 10.0 mi East 16.1 mph 27.6 mph N/A   Overcast
4:52 PM 45.0 °F 37.4 °F 30.0 °F 56% 29.88 in 10.0 mi ESE 18.4 mph 31.1 mph 0.00 in Rain Light Rain
5:52 PM 45.0 °F 36.9 °F 27.0 °F 49% 29.85 in 10.0 mi East 20.7 mph 34.5 mph 0.00 in   Overcast
6:52 PM 44.1 °F 35.2 °F 28.9 °F 55% 29.81 in 10.0 mi ESE 23.0 mph 38.0 mph 0.00 in Rain Light Rain
7:52 PM 39.9 °F 33.4 °F 33.1 °F 77% 29.83 in 4.0 mi ESE 10.4 mph 24.2 mph 0.04 in Rain Light Rain
8:18 PM 39.0 °F - 33.1 °F 79% 29.83 in 4.0 mi North - - 0.03 in Rain Light Rain
8:52 PM 37.9 °F 30.0 °F 32.0 °F 79% 29.86 in 6.0 mi ESE 12.7 mph 25.3 mph 0.05 in Rain Light Rain
9:52 PM 37.0 °F 28.1 °F 32.0 °F 82% 29.88 in 4.0 mi ESE 15.0 mph 21.9 mph 0.05 in Rain Light Rain
10:52 PM 37.0 °F 30.4 °F 30.9 °F 79% 29.86 in 10.0 mi ESE 9.2 mph 20.7 mph 0.01 in   Overcast
11:52 PM 36.0 °F 29.6 °F 30.0 °F 79% 29.83 in 8.0 mi ESE 8.1 mph - 0.00 in   Overcast